User: anonymous   Login
Location: Caltech
(34.1382°N, 118.1253°W)
Time: 11:24:24
(UTC-08:00)
Language:

ERBS - Orbit

View from above orbital plane
View from above orbital plane
View from above satellite
View from above satellite

Ground track
Ground track

The orbit data is extracted from the following two-line orbital elements,

1 15354U 84108B   14330.85259326  .00013972  00000-0  46452-3 0  6443
2 15354 057.0110 168.3547 0019928 130.1627 230.1171 15.31330937654518
Epoch (UTC): 26 November 2014 20:27:44
Eccentricity: 0.0019928
inclination: 57.0110°
perigee height: 458 km
apogee height: 485 km
right ascension of ascending node: 168.3547°
argument of perigee: 130.1627°
revolutions per day: 15.31330937
mean anomaly at epoch: 230.1171°
orbit number at epoch: 65451

The dashed part of the orbit path shows where the satellite is in the earth's shadow,  

DLR